TimeAKDT,TemperatureF,Dew PointF,Humidity,Sea Level PressureIn,VisibilityMPH,Wind Direction,Wind SpeedMPH,Gust SpeedMPH,PrecipitationIn,Events,Conditions,WindDirDegrees,DateUTC
12:11 AM,46.4,46.4,100,29.77,10.0,Calm,Calm,-,0.00,,Overcast,0,2013-05-18 08:11:00
12:40 AM,46.4,46.4,100,29.77,8.0,Calm,Calm,-,0.00,,Overcast,0,2013-05-18 08:40:00
12:53 AM,46.9,46.0,97,29.77,10.0,Calm,Calm,-,0.00,,Overcast,0,2013-05-18 08:53:00
12:58 AM,46.4,46.4,100,29.77,10.0,Calm,Calm,-,N/A,,Overcast,0,2013-05-18 08:58:00
1:53 AM,48.0,46.9,96,29.78,3.0,Calm,Calm,-,0.01,Rain,Light Rain,0,2013-05-18 09:53:00
2:21 AM,48.2,46.4,93,29.78,10.0,Calm,Calm,-,0.00,Rain,Light Rain,0,2013-05-18 10:21:00
2:35 AM,48.2,46.4,93,29.78,10.0,Calm,Calm,-,0.01,,Overcast,0,2013-05-18 10:35:00
2:53 AM,48.0,46.0,93,29.78,7.0,Calm,Calm,-,0.01,,Overcast,0,2013-05-18 10:53:00
3:53 AM,48.0,46.0,93,29.80,8.0,Calm,Calm,-,0.03,Rain,Rain,0,2013-05-18 11:53:00
4:53 AM,48.9,45.0,86,29.80,10.0,SSE,3.5,-,0.05,Rain,Light Rain,150,2013-05-18 12:53:00
5:51 AM,46.4,46.4,100,29.82,7.0,WSW,6.9,-,0.01,Rain,Light Rain,240,2013-05-18 13:51:00
5:53 AM,46.9,46.0,97,29.83,5.0,WSW,6.9,-,0.01,Rain,Light Rain,240,2013-05-18 13:53:00
5:59 AM,46.4,46.4,100,29.83,1.8,SW,6.9,-,0.02,Rain,Rain,230,2013-05-18 13:59:00
6:02 AM,46.4,46.4,100,29.83,1.2,SW,5.8,-,0.03,Rain,Heavy Rain,230,2013-05-18 14:02:00
6:04 AM,46.4,46.4,100,29.83,1.2,SW,8.1,-,0.04,Rain,Heavy Rain,230,2013-05-18 14:04:00
6:28 AM,46.4,44.6,93,29.84,0.8,SW,6.9,-,0.10,Rain,Rain,230,2013-05-18 14:28:00
6:38 AM,46.4,44.6,93,29.84,1.2,SSW,4.6,-,0.13,Rain,Rain,200,2013-05-18 14:38:00
6:45 AM,46.4,44.6,93,29.84,2.0,SSW,3.5,-,0.14,Rain,Rain,210,2013-05-18 14:45:00
6:53 AM,46.9,46.0,97,29.85,6.0,SSW,3.5,-,0.14,Rain,Light Rain,200,2013-05-18 14:53:00
7:23 AM,46.4,44.6,93,29.86,9.0,SSW,5.8,-,0.00,,Overcast,210,2013-05-18 15:23:00
7:38 AM,46.4,44.6,93,29.86,10.0,SSW,3.5,-,0.00,,Overcast,200,2013-05-18 15:38:00
7:53 AM,46.0,45.0,96,29.87,10.0,SSW,6.9,-,0.00,,Overcast,210,2013-05-18 15:53:00
8:53 AM,46.9,45.0,93,29.89,10.0,SW,5.8,-,N/A,,Overcast,220,2013-05-18 16:53:00
9:40 AM,48.2,46.4,93,29.91,2.5,SW,9.2,-,0.01,Rain,Light Rain,220,2013-05-18 17:40:00
9:51 AM,48.2,46.4,93,29.92,8.0,SW,9.2,-,0.01,Rain,Light Rain,220,2013-05-18 17:51:00
10:53 AM,46.9,46.0,97,29.96,8.0,SW,4.6,-,0.00,Rain,Light Rain,220,2013-05-18 18:53:00
11:53 AM,46.9,46.0,97,29.99,10.0,SW,5.8,-,0.02,Rain,Light Rain,220,2013-05-18 19:53:00
12:28 PM,48.2,44.6,87,30.01,10.0,SW,6.9,-,0.00,,Overcast,220,2013-05-18 20:28:00
12:51 PM,46.4,44.6,93,30.02,7.0,South,5.8,-,0.01,Rain,Light Rain,190,2013-05-18 20:51:00
12:53 PM,46.9,45.0,93,30.02,9.0,SSW,4.6,-,0.01,Rain,Light Rain,210,2013-05-18 20:53:00
1:22 PM,46.4,44.6,93,30.04,1.2,WSW,9.2,17.3,0.04,Rain,Heavy Rain,250,2013-05-18 21:22:00
1:30 PM,46.4,44.6,93,30.05,2.0,West,9.2,-,0.05,Rain,Rain,260,2013-05-18 21:30:00
1:53 PM,46.0,45.0,96,30.07,9.0,West,10.4,-,0.06,,Overcast,260,2013-05-18 21:53:00
2:53 PM,45.0,42.1,90,30.11,10.0,WSW,6.9,19.6,0.00,,Overcast,240,2013-05-18 22:53:00
3:28 PM,46.4,41.0,81,30.13,10.0,West,9.2,-,N/A,,Overcast,260,2013-05-18 23:28:00
3:53 PM,45.0,39.0,80,30.14,10.0,West,8.1,-,0.00,Rain,Light Rain,260,2013-05-18 23:53:00
4:53 PM,44.1,39.0,82,30.18,10.0,West,5.8,-,0.01,Rain,Light Rain,260,2013-05-19 00:53:00
5:46 PM,44.6,39.2,81,30.20,10.0,WSW,6.9,-,0.00,,Overcast,250,2013-05-19 01:46:00
5:53 PM,46.0,39.0,76,30.21,10.0,West,6.9,-,0.00,,Overcast,260,2013-05-19 01:53:00
6:18 PM,44.6,37.4,76,30.21,10.0,SW,10.4,19.6,N/A,,Mostly Cloudy,220,2013-05-19 02:18:00
6:53 PM,44.1,34.0,68,30.23,10.0,SW,8.1,-,N/A,,Clear,220,2013-05-19 02:53:00
7:53 PM,42.1,33.1,70,30.25,10.0,SW,6.9,-,N/A,,Mostly Cloudy,220,2013-05-19 03:53:00
8:53 PM,42.1,36.0,79,30.29,10.0,SSW,4.6,-,N/A,,Overcast,200,2013-05-19 04:53:00
9:53 PM,41.0,34.0,76,30.31,10.0,South,3.5,-,N/A,,Overcast,190,2013-05-19 05:53:00
10:53 PM,39.9,35.1,83,30.33,10.0,South,4.6,-,0.00,Rain,Light Rain,190,2013-05-19 06:53:00
11:53 PM,41.0,34.0,76,30.35,10.0,South,4.6,-,0.00,Rain,Light Rain,180,2013-05-19 07:53:00